Flag for Malta Weather past 2 weeks in Valletta, Malta

77 °F

Passing clouds.

Feels Like: 79 °F
Forecast: 69 / 77 °F
Wind: 7 mph from Northwest

Location: Luqa

Current Time: Oct 10, 2015 at 2:59:19 PM

Latest Report: Oct 10, 2015 at 2:15 PM

Visibility: N/A

Pressure: 29.71 "Hg

Humidity: 61%

Dew point: 63 °F

Location of VallettaLocation

Historic Weather in Valletta — Graph


Valletta temperature yesterday

Maximum temperature yesterday: 81 °F (at 12:45 PM)
Minimum temperature yesterday: 68 °F (at 1:15 AM)
Average temperature yesterday: 75 °F

Past Weeks' High & Low Weather Summary

High86 °F (Oct 6, 2:45 PM)100% (Oct 2, 5:45 AM)30.24 "Hg (Oct 2, 5:45 AM)
Low64 °F (Sep 30, 3:15 AM)30% (Sep 26, 2:45 PM)29.62 "Hg (Oct 10, 6:45 AM)
Average73 °F73%30.03 "Hg
* Reported Sep 25 1:15 PM — Oct 10 1:45 PM, Valletta, Weather by CustomWeather, © 2015

Note: Actual official high and low records may vary slightly from our data, if they occured in-between our weather recording intervals... More about our weather records


Valletta weather history for previous 24 hours

Time TempWeatherWind HumidityBarometerVisibility
1:45 PM
Sat, Oct 10
77 °FPassing clouds.8 mph61%29.71 "HgN/A
1:15 PM79 °FPassing clouds.8 mph58%29.71 "HgN/A
12:45 PM77 °FPassing clouds.10 mph61%29.71 "HgN/A
12:15 PM79 °FSprinkles. Passing clouds.9 mph54%29.74 "HgN/A
11:45 AM81 °FPassing clouds.8 mph51%29.71 "HgN/A
11:15 AM79 °FScattered clouds.8 mph54%29.71 "HgN/A
10:45 AM77 °FScattered clouds.9 mph57%29.71 "HgN/A
10:15 AM75 °FScattered clouds.12 mph65%29.71 "HgN/A
9:45 AM73 °FScattered clouds.14 mph65%29.71 "HgN/A
9:15 AM72 °FPassing clouds.21 mph69%29.71 "HgN/A
8:45 AM72 °FPassing clouds.17 mph73%29.68 "HgN/A
8:15 AM79 °FPassing clouds.8 mph65%29.68 "HgN/A
7:45 AM81 °FPassing clouds.12 mph54%29.65 "HgN/A
7:15 AM82 °FPassing clouds.16 mph45%29.62 "HgN/A
6:45 AM81 °FPassing clouds.16 mph54%29.62 "HgN/A
5:45 AM79 °FPassing clouds.13 mph65%29.68 "Hg5 mi
5:15 AM75 °FPassing clouds.8 mph94%29.71 "Hg5 mi
4:45 AM75 °FPassing clouds.5 mph89%29.74 "Hg5 mi
4:15 AM75 °FThunderstorms. Passing clouds.7 mph94%29.74 "Hg4 mi
3:45 AM75 °FSprinkles. Passing clouds.10 mph94%29.74 "Hg5 mi
3:15 AM75 °FFog.20 mph94%29.71 "Hg4 mi
2:45 AM75 °FMild.21 mph89%29.71 "Hg5 mi
2:15 AM75 °FMild.20 mph94%29.74 "Hg5 mi
1:45 AM75 °FMild.22 mph94%29.74 "Hg5 mi
1:15 AM75 °FThunderstorms. Partly cloudy.20 mph94%29.77 "Hg3 mi
12:45 AM75 °FFog.9 mph94%29.80 "Hg4 mi
12:15 AM75 °FPassing clouds.14 mph89%29.80 "Hg5 mi
11:15 PM
Fri, Oct 9
75 °FMild.9 mph89%29.83 "Hg6 mi
10:45 PM75 °FMild.9 mph94%29.86 "Hg4 mi
10:15 PM75 °FLight rain. Passing clouds.10 mph94%29.86 "Hg5 mi
9:45 PM75 °FRain. Passing clouds.7 mph94%29.89 "Hg5 mi
9:15 PM75 °FLight rain. Passing clouds.8 mph94%29.86 "Hg5 mi
8:45 PM75 °FPassing clouds.13 mph94%29.83 "Hg5 mi
8:15 PM75 °FLight rain. Passing clouds.20 mph94%29.80 "Hg5 mi
7:45 PM75 °FLight rain. Passing clouds.23 mph94%29.77 "Hg5 mi
7:15 PM77 °FLight rain. Scattered clouds.18 mph89%29.80 "HgN/A
6:45 PM77 °FPartly sunny.20 mph89%29.80 "HgN/A
6:15 PM77 °FPartly sunny.21 mph83%29.77 "HgN/A
5:45 PM77 °FOvercast.24 mph79%29.80 "HgN/A
5:15 PM77 °FPartly sunny.23 mph79%29.80 "HgN/A
4:45 PM79 °FScattered clouds.22 mph79%29.80 "HgN/A
4:15 PM77 °FPassing clouds.24 mph79%29.80 "HgN/A
3:45 PM79 °FSunny.24 mph74%29.83 "Hg10 mi
3:15 PM81 °FSunny.25 mph66%29.83 "Hg10 mi
2:45 PM79 °FSunny.26 mph74%29.83 "Hg10 mi
2:15 PM81 °FSunny.26 mph70%29.86 "Hg10 mi
Weather by CustomWeather, © 2015

See weather overviewHow to use our weather pages